Flag for Burkina Faso Weather past 2 weeks in Bobo-Dioulasso, Burkina Faso

Now
82 °F

Clear.


Feels Like: 80 °F
Forecast: 74 / 98 °F
Wind: 6 mph from Northeast

Location: Ouagadougou Airport

Current Time: Mar 28, 2015 at 1:57:39 AM

Latest Report: Mar 28, 2015 at 1:00 AM


Visibility: 10 mi

Pressure: 29.98 "Hg

Humidity: 14%

Dew point: 28 °F

Location of Bobo-DioulassoLocation

Historic Weather in Bobo-Dioulasso — Graph

°F

Bobo-Dioulasso temperature yesterday

Maximum temperature yesterday: 99 °F (at 2:00 PM)
Minimum temperature yesterday: 77 °F (at 6:00 AM)
Average temperature yesterday: 88 °F

Past Weeks' High & Low Weather Summary

 TemperatureHumidityPressure
High104 °F (Mar 16, 1:00 PM)66% (Mar 24, 12:00 AM)30.04 "Hg (Mar 24, 12:00 AM)
Low77 °F (Mar 13, 7:00 AM)6% (Mar 16, 1:00 PM)29.71 "Hg (Mar 21, 5:00 PM)
Average91 °F26%29.83 "Hg
* Reported Mar 13 7:00 AM — Midnight between Mar 27 and Mar 28, Bobo-Dioulasso, Weather by CustomWeather, © 2015

Note: Actual official high and low records may vary slightly from our data, if they occured in-between our weather recording intervals... More about our weather records

Advertising

Bobo-Dioulasso weather history for previous 24 hours

 ConditionsComfort  
Time TempWeatherWind HumidityBarometerVisibility
12:00 AM
Sat, Mar 28
84 °FClear.8 mph14%29.98 "Hg10 mi
11:00 PM
Fri, Mar 27
82 °FClear.5 mph20%30.01 "Hg10 mi
10:00 PM86 °FPleasantly warm.5 mph18%30.01 "HgN/A
9:00 PM88 °FClear.7 mph15%29.98 "Hg10 mi
8:00 PM91 °FClear.5 mph15%29.98 "Hg10 mi
7:00 PM90 °FClear.2 mph16%29.92 "Hg10 mi
6:00 PM93 °FSunny.6 mph12%29.92 "Hg10 mi
5:00 PM97 °FPassing clouds.6 mph10%29.89 "HgN/A
4:00 PM99 °FPassing clouds.8 mph10%29.89 "HgN/A
3:00 PM99 °FPassing clouds.6 mph9%29.92 "HgN/A
2:00 PM99 °FPassing clouds.8 mph9%29.92 "HgN/A
1:00 PM97 °FPassing clouds.7 mph9%29.95 "HgN/A
12:00 PM95 °FPassing clouds.8 mph8%29.98 "HgN/A
11:00 AM93 °FPassing clouds.10 mph8%30.04 "HgN/A
10:00 AM90 °FPassing clouds.12 mph9%30.04 "HgN/A
9:00 AM86 °FSunny.10 mph11%30.04 "Hg10 mi
8:00 AM86 °FHaze.8 mph13%30.04 "Hg2 mi
7:00 AM81 °FClear.3 mph18%30.01 "Hg4 mi
6:00 AM77 °FClear.3 mph21%29.98 "Hg5 mi
5:00 AM79 °FClear.No wind21%29.95 "Hg10 mi
4:00 AM79 °FClear.No wind23%29.95 "Hg10 mi
3:00 AM82 °FClear.6 mph20%29.92 "Hg10 mi
2:00 AM84 °FClear.7 mph20%29.92 "Hg10 mi
1:00 AM86 °FClear.6 mph22%29.95 "Hg10 mi
Weather by CustomWeather, © 2015

See weather overviewHow to use our weather pages